Location: Unspecified
(0.0000°N, 0.0000°E)
Time: 11:32:44
(UTC+00:00)

A-11 Canister half - Pass Details

Date: 23 November 2019
Orbit: 1515 x 1685 km, 47.2° (Epoch: 13 December)

Event Time Altitude Azimuth Distance (km) Brightness Sun altitude
Rises 22:56:30 0° 353° (N) 4,900 - -66.2°
Reaches altitude 10° 23:02:26 10° 20° (NNE) 3,885 - -66.9°
Maximum altitude 23:06:23 13° 44° (NE) 3,636 - -67.3°
Drops below altitude 10° 23:10:17 10° 68° (ENE) 3,839 - -67.7°
Sets 23:15:57 0° 94° (E) 4,786 - -68.2°
